Location: Recife
(8.0585°S, 34.8848°W)
Time: 10:47:23
(UTC-03:00)

Vanguard 2 Rocket - Pass Details

Date: 16 April 2026
Orbit: 553 x 3286 km, 32.9° (Epoch: 8 May)

Event Time Altitude Azimuth Distance (km) Brightness Sun altitude
Rises 17:34:36 0° 268° (W) 6,987 13.5 -5.2°
Reaches altitude 10° 17:42:33 10° 286° (WNW) 5,522 12.6 -7.1°
Maximum altitude 17:50:44 16° 318° (NW) 4,382 11.2 -9.1°
Drops below altitude 10° 17:57:16 10° 351° (N) 4,213 10.5 -10.7°
Sets 18:02:00 0° 13° (NNE) 4,670 10.5 -11.9°
